Flag for Canada Weather past 2 weeks in Cranbrook, British Columbia, Canada

Now
25 °F

Passing clouds.


Feels Like: 25 °F
Forecast: 19 / 32 °F
Wind: No wind

Location: Cranbrook

Current Time: Jan 30, 2015 at 6:22:09 PM

Latest Report: Jan 30, 2015 at 6:00 PM


Visibility: 25 mi

Pressure: 30.33 "Hg

Humidity: 86%

Dew point: 21 °F

Location of CranbrookLocation

Historic Weather in Cranbrook — Graph

°F

Cranbrook temperature yesterday

Maximum temperature yesterday: 36 °F (at 3:00 PM)
Minimum temperature yesterday: 21 °F (at 12:00 AM)
Average temperature yesterday: 26 °F

Past Weeks' High & Low Weather Summary

 TemperatureHumidityPressure
High50 °F (Jan 25, 2:00 PM)100% (Jan 18, 8:00 AM)30.58 "Hg (Jan 18, 8:00 AM)
Low7 °F (Jan 21, 7:00 AM)42% (Jan 19, 2:00 PM)29.78 "Hg (Jan 18, 8:00 AM)
Average28 °F82%30.27 "Hg
* Reported Jan 15 4:00 PM — Jan 30 4:00 PM, Cranbrook, Weather by CustomWeather, © 2014

Note: Actual official high and low records may vary slightly from our data, if they occured in-between our weather recording intervals... More about our weather records

Advertising

Cranbrook weather history for previous 24 hours

 ConditionsComfort  
Time TempWeatherWind HumidityBarometerVisibility
4:00 PM
Jan 30
28 °FPartly sunny.7 mph80%30.35 "Hg25 mi
3:00 PM28 °FLow clouds.5 mph74%30.38 "Hg15 mi
2:00 PM25 °FLow clouds.No wind86%30.43 "Hg15 mi
1:00 PM25 °FLow clouds.2 mph86%30.47 "Hg25 mi
12:00 PM23 °FLow clouds.No wind86%30.50 "Hg15 mi
11:00 AM21 °FOvercast.2 mph86%30.51 "Hg15 mi
10:00 AM19 °FOvercast.2 mph93%30.54 "Hg25 mi
9:00 AM18 °FOvercast.2 mph93%30.53 "Hg15 mi
8:00 AM18 °FFog.No wind86%30.53 "Hg15 mi
7:00 AM14 °FPartly cloudy.2 mph85%30.52 "Hg15 mi
6:00 AM18 °FPartly cloudy.No wind93%30.52 "Hg15 mi
5:00 AM14 °FClear.No wind92%30.52 "Hg25 mi
4:00 AM16 °FClear.2 mph93%30.50 "Hg25 mi
3:00 AM18 °FClear.2 mph93%30.50 "Hg25 mi
2:00 AM18 °FClear.2 mph93%30.50 "Hg25 mi
1:00 AM19 °FClear.3 mph93%30.50 "Hg25 mi
12:00 AM19 °FClear.3 mph93%30.52 "Hg25 mi
11:00 PM
Jan 29
23 °FClear.5 mph93%30.52 "Hg25 mi
10:00 PM21 °FClear.2 mph86%30.52 "Hg25 mi
9:00 PM23 °FClear.No wind86%30.50 "Hg25 mi
8:00 PM21 °FClear.5 mph93%30.51 "Hg25 mi
7:00 PM28 °FPassing clouds.3 mph86%30.49 "Hg25 mi
6:00 PM27 °FPassing clouds.2 mph86%30.49 "Hg25 mi
Weather by CustomWeather, © 2014

See weather overviewHow to use our weather pages